RH
16 16 16 16 16 16 15 15 14 14 14 13 12 12 12 12 11 11 12 12 12 12 12 12 13 13 13 14 14 15 16 17 18 20 21 21 22 22 23 23 24 24 24 24 24 24 23 23 23 23 23 23 23 23 23 23 23 23 23 22 23 23 24 24 26 26 26 28 34 42 47 45 56 67 68 58 54 50 40 34 39 46 50 48 48 49
16 16 16 16 16 15 14 14 14 13 12 12 12 12 12 11 12 12 12 13 14 15 16 16 16 17 17 17 18 20 22 24 26 28 28 28 28 29 30 30 30 31 31 31 31 31 30 30 29 28 28 27 27 26 26 26 26 25 25 24 24 24 24 25 26 26 27 28 30 33 36 38 49 58 54 46 42 39 34 31 34 38 40 39 38 39
16 16 16 15 15 14 14 13 13 12 12 12 12 12 12 12 13 13 14 16 18 19 21 22 22 22 22 24 26 28 32 35 36 37 37 37 37 37 38 38 39 40 40 40 40 40 40 40 39 38 37 36 34 34 32 32 31 30 30 29 28 28 28 28 28 29 30 31 32 33 34 36 43 47 42 39 38 37 36 35 36 36 36 35 34 34
16 15 15 14 14 14 13 13 12 12 12 13 14 14 15 16 16 17 18 20 22 24 26 28 29 30 30 32 35 39 42 45 46 47 46 46 46 46 47 47 48 49 49 50 50 49 49 48 47 46 45 44 43 42 41 40 39 38 37 36 34 34 33 33 33 33 34 34 35 37 39 42 43 44 45 46 46 46 44 43 44 44 44 42 39 37
15 14 14 14 13 13 13 12 12 13 14 16 18 19 20 21 21 22 23 24 26 28 30 34 36 39 40 42 45 49 52 54 56 56 56 56 56 56 57 57 58 58 58 58 57 56 54 53 52 50 50 49 49 48 48 48 46 46 44 43 42 42 40 40 39 39 39 39 40 42 44 47 50 53 56 60 61 60 58 58 59 61 62 54 47 42
14 14 13 13 13 13 13 13 14 16 19 21 22 24 24 26 26 27 27 27 28 29 32 36 40 44 48 51 54 57 59 61 62 62 63 64 64 64 64 64 64 64 64 63 62 60 58 57 55 54 53 52 52 52 52 52 52 52 51 51 50 49 49 48 48 47 47 47 47 48 50 53 56 60 62 65 67 68 68 70 71 72 72 62 52 46
13 13 14 14 14 14 15 16 18 22 26 27 28 29 30 31 32 32 32 31 31 31 32 35 40 45 50 55 58 61 62 64 65 66 67 68 68 68 67 66 66 66 65 65 64 62 61 60 58 57 56 55 55 55 55 55 56 56 56 56 56 56 56 56 55 55 55 55 55 55 56 57 58 60 62 64 66 66 67 69 70 70 67 60 54 50
12 13 15 16 16 17 18 21 26 31 35 36 37 38 38 38 39 40 39 38 37 36 35 35 38 43 48 54 58 61 63 64 66 68 69 69 68 66 65 64 64 64 64 63 63 62 61 60 59 58 58 58 58 58 59 60 60 60 60 60 60 60 60 60 60 60 60 60 60 60 60 60 61 62 62 64 64 64 64 65 66 65 63 59 55 53
14 14 16 19 21 22 22 26 33 40 45 46 47 48 47 46 47 48 46 46 46 46 45 42 42 42 46 50 55 59 62 64 66 67 67 64 62 61 61 62 62 63 63 62 62 62 61 60 60 61 62 62 64 65 66 66 67 67 67 67 66 66 65 64 64 63 62 62 62 62 62 63 63 64 65 65 66 66 65 65 65 64 62 60 57 56
18 19 21 23 26 28 30 32 38 46 54 54 56 58 59 58 58 56 53 52 53 56 57 54 52 50 50 53 56 58 61 62 62 62 60 59 60 61 63 64 65 66 65 65 64 64 64 64 66 67 69 71 72 74 74 74 74 74 74 74 73 72 70 70 68 68 66 66 65 65 65 65 65 66 66 66 66 66 66 66 65 64 62 60 58 58
23 26 28 29 31 34 37 38 42 47 55 58 60 63 67 68 67 63 58 54 55 58 62 62 60 58 56 56 56 57 58 57 56 56 58 61 64 68 71 72 72 72 71 70 70 69 70 72 74 76 78 79 80 80 81 80 80 79 78 78 77 76 76 74 73 72 72 70 70 69 69 68 68 68 68 68 68 67 67 66 65 64 63 62 61 60
30 33 35 36 37 39 41 42 46 50 56 60 62 64 67 68 67 65 61 58 58 60 64 65 65 64 62 60 58 57 56 56 57 59 62 67 72 76 78 78 77 77 76 76 75 76 76 78 80 81 82 82 82 82 81 80 80 80 79 78 78 77 76 76 76 75 74 74 74 74 74 73 73 72 72 71 71 70 70 69 68 67 66 66 66 65
39 42 44 44 45 46 46 48 50 53 57 60 62 63 62 63 64 64 63 62 61 63 65 66 67 67 67 67 66 65 64 64 65 67 70 73 76 79 80 79 78 78 78 78 79 80 82 83 83 83 82 82 81 80 79 79 78 78 78 77 76 76 76 75 75 75 76 76 76 76 76 76 76 76 75 74 74 73 73 72 72 71 71 70 70 69
49 52 54 55 55 55 55 55 55 56 56 58 60 60 60 61 62 62 62 61 62 63 66 67 66 66 68 71 73 74 74 72 73 74 74 76 79 81 81 79 78 78 78 79 80 82 84 85 85 84 83 82 81 80 80 79 78 77 76 76 75 74 74 74 74 74 74 74 75 76 76 76 76 76 76 76 75 74 74 74 73 73 72 72 71 70
62 64 65 65 64 63 62 60 58 58 58 58 60 60 60 59 59 60 60 60 60 62 64 65 66 66 66 70 73 76 77 77 77 77 76 77 80 83 84 82 80 78 78 78 78 80 84 86 86 86 85 84 83 82 81 80 78 78 76 76 75 74 73 73 72 72 72 73 73 74 74 74 74 74 74 74 73 73 73 72 72 71 71 70 69 68
74 74 74 73 71 68 64 62 62 62 62 63 63 62 61 60 58 58 59 60 60 61 63 64 64 64 63 66 70 74 78 79 79 78 76 74 76 80 85 84 82 80 78 76 76 76 79 82 85 87 87 86 86 84 83 81 80 78 77 76 75 74 73 72 72 72 72 72 71 71 71 71 71 71 71 71 71 71 70 70 69 69 68 68 67 67
79 79 78 76 73 70 65 66 67 68 68 68 68 67 66 64 62 61 60 60 60 61 62 64 64 63 60 62 66 72 79 82 81 78 75 71 71 74 80 82 81 79 78 76 74 73 74 77 81 85 88 88 88 87 86 84 82 80 78 76 75 74 73 72 72 72 71 71 70 70 70 70 70 70 70 70 70 70 69 69 68 68 68 68 68 67
78 78 78 76 73 70 69 70 71 72 73 73 73 73 72 70 68 65 63 62 61 62 62 64 64 63 60 60 62 69 79 84 84 81 76 72 70 70 74 76 76 74 74 73 73 73 74 74 76 79 83 86 87 88 87 86 84 82 79 77 76 74 73 72 71 70 70 69 69 69 69 69 70 70 70 70 70 70 70 70 70 70 70 70 70 69
80 80 79 77 74 73 72 73 74 76 77 78 78 78 78 76 74 71 69 67 65 64 64 64 63 61 60 60 61 66 76 84 86 84 79 74 71 70 72 72 71 70 70 70 72 74 76 76 77 78 80 82 84 85 86 85 84 82 80 78 77 76 74 73 72 70 70 69 69 69 70 70 70 71 71 71 71 72 72 72 72 72 73 72 72 71
82 80 77 77 76 76 75 76 78 81 83 83 83 82 81 79 78 76 76 74 73 71 68 67 64 60 58 58 59 63 72 81 86 86 81 77 73 70 70 72 72 72 70 71 73 76 79 80 81 81 81 82 83 83 84 83 82 82 81 80 79 77 76 75 74 73 72 72 72 72 72 72 73 73 73 73 73 73 73 74 74 74 74 74 74 73
82 80 77 78 79 80 80 82 83 85 84 84 84 84 83 82 80 80 79 79 78 77 74 71 67 63 61 60 60 62 69 78 84 86 83 78 73 70 70 74 76 75 73 73 75 78 82 83 83 82 82 83 83 83 83 83 82 82 82 81 80 80 78 78 76 76 76 75 74 74 74 75 75 75 74 74 74 74 74 75 76 76 76 74 74 73
84 82 80 80 82 84 84 84 84 84 84 85 86 84 82 80 80 81 81 81 80 79 77 74 70 67 66 64 63 64 68 77 84 87 86 80 72 67 69 74 76 76 73 72 74 78 81 82 82 82 82 83 83 83 83 83 84 84 83 82 81 80 79 78 78 77 76 76 76 76 76 76 76 76 76 76 76 76 76 76 76 76 76 75 74 73
85 84 82 82 84 84 85 85 86 85 84 82 79 76 71 73 77 81 84 83 82 79 77 75 72 68 65 63 62 62 64 72 78 84 85 78 70 64 66 72 74 74 71 71 73 76 78 79 80 80 81 82 82 83 84 84 85 84 83 82 80 80 79 78 78 78 78 78 78 78 78 78 78 78 77 77 77 77 77 77 77 76 76 75 74 74
85 85 84 84 85 85 86 85 84 83 81 78 76 74 73 76 80 84 84 82 80 78 76 74 70 66 62 60 58 58 58 63 69 74 76 72 66 62 63 68 71 72 70 71 73 76 77 77 77 78 79 80 81 83 85 86 85 84 83 81 80 80 79 79 79 79 80 80 80 80 80 80 79 78 78 78 77 78 78 78 77 77 76 76 76 74
84 84 84 85 85 85 84 84 83 82 80 80 80 81 82 83 84 84 82 80 78 76 76 73 70 66 62 60 58 58 57 59 62 64 66 64 62 60 61 65 68 69 69 70 73 76 77 76 76 76 76 78 81 83 85 86 86 84 83 82 81 80 80 80 80 80 80 80 80 80 80 79 78 78 77 78 78 78 78 78 78 77 77 77 76 76
84 83 84 84 83 82 81 81 80 80 79 80 81 82 83 83 82 81 78 76 76 77 77 74 71 66 63 61 60 58 57 58 59 60 62 61 60 58 58 61 64 66 67 70 74 76 77 74 74 73 75 78 80 83 85 86 86 85 84 83 82 81 80 80 79 78 78 78 78 78 78 77 77 77 77 78 79 79 79 78 78 78 78 78 78 77
85 85 85 84 83 82 82 79 78 76 76 76 76 77 78 78 76 75 74 74 76 77 76 74 70 66 62 60 58 56 56 57 58 58 60 60 58 56 55 58 61 64 66 69 73 76 76 73 72 72 74 76 79 82 85 86 87 86 84 84 82 81 80 78 77 76 76 75 75 76 76 76 76 77 78 79 80 79 79 79 78 78 79 79 79 78
86 86 85 85 85 84 83 81 80 78 78 77 77 77 77 77 78 77 76 76 77 77 76 73 70 67 63 60 57 56 55 56 57 58 60 60 58 55 54 57 60 62 66 70 73 74 73 71 70 71 72 74 78 81 85 87 87 86 85 84 83 81 79 78 76 74 73 73 73 73 74 74 76 77 78 79 80 80 79 79 79 80 80 80 80 80
85 85 84 84 84 83 83 82 82 82 81 80 80 81 81 82 81 80 78 77 77 76 74 72 69 65 61 58 56 55 55 56 57 59 61 62 58 55 54 56 59 62 67 72 73 72 70 69 70 71 72 74 76 80 85 87 88 87 86 85 83 81 79 77 75 74 72 72 71 72 72 74 75 76 78 78 79 80 80 80 80 80 80 81 81 81
83 84 84 83 83 83 83 83 82 81 80 79 79 80 80 80 79 78 76 74 74 72 70 68 64 61 58 55 54 54 54 55 57 60 63 63 60 56 54 56 59 64 71 74 74 72 68 68 68 70 71 73 76 79 84 86 88 88 87 86 84 82 80 77 75 73 72 71 71 70 71 72 73 74 76 77 78 79 80 81 82 82 82 82 82 82
80 82 84 83 83 83 82 82 80 78 76 76 76 76 76 76 76 74 72 70 68 65 63 61 58 57 56 56 57 58 56 57 58 62 64 64 60 56 54 57 61 67 74 78 77 74 68 66 66 68 69 71 74 76 80 84 86 87 87 86 84 82 80 78 76 73 72 71 70 70 70 70 71 72 73 75 77 78 80 81 82 83 83 84 83 83
80 82 83 83 82 81 80 78 76 76 75 76 76 75 74 74 72 69 66 64 62 60 60 58 58 60 61 63 64 64 61 60 62 64 66 67 64 60 60 64 69 73 76 78 78 76 71 68 66 67 68 69 71 73 76 80 83 85 86 85 84 82 80 78 76 73 72 71 70 69 69 68 69 70 71 73 75 77 79 81 82 84 84 84 84 83
82 82 82 82 80 79 76 76 75 74 74 74 74 74 74 71 68 65 62 62 63 65 67 69 70 71 72 72 71 69 65 64 66 69 73 74 73 71 70 74 76 78 78 78 78 76 74 70 68 68 68 68 69 71 73 77 81 84 84 84 83 82 80 78 76 74 72 71 70 69 68 68 68 68 70 71 73 76 78 80 82 83 84 84 84 83
81 81 81 80 78 77 76 75 74 74 74 74 74 73 70 67 64 62 64 68 73 76 79 80 81 80 79 78 76 72 68 69 73 77 81 83 82 81 79 80 79 79 78 77 76 74 73 71 70 69 68 67 68 69 72 76 79 82 84 84 83 82 80 78 76 74 72 71 70 69 68 67 67 67 68 70 72 74 76 78 80 82 82 83 83 83
81 80 80 79 77 76 76 74 74 73 72 72 70 68 65 62 62 66 74 80 83 84 85 85 85 84 83 81 78 75 72 75 79 84 86 87 86 85 83 81 80 79 79 77 76 74 73 71 70 69 68 66 66 67 70 74 77 80 82 83 82 82 81 79 78 76 74 72 70 69 68 67 66 66 67 69 71 73 75 77 79 80 81 82 82 83
81 80 79 78 76 76 74 72 71 70 69 68 66 64 60 62 69 77 84 86 86 86 86 86 86 86 85 84 82 80 78 80 84 86 88 88 88 86 84 81 80 79 80 78 77 76 74 72 70 70 68 66 66 66 68 72 74 77 80 81 82 81 81 80 78 76 74 72 70 69 67 66 66 65 66 68 70 72 74 76 77 79 80 80 82 83
81 79 77 76 76 74 72 69 67 66 66 64 62 60 61 71 79 85 87 87 87 87 87 87 87 87 87 87 86 85 84 84 86 87 88 88 88 87 85 82 80 80 80 80 78 77 76 74 72 70 68 68 67 67 68 70 72 74 76 78 80 80 80 80 78 77 74 72 70 68 67 66 65 64 65 66 68 70 72 74 76 77 78 79 80 82
81 79 77 76 74 73 70 67 66 64 64 61 60 62 70 80 86 87 87 87 87 87 88 88 88 88 88 88 88 88 87 87 87 88 88 88 88 88 86 84 82 81 81 81 80 79 78 76 73 70 69 68 68 69 69 70 70 72 74 76 78 78 79 79 78 76 74 72 70 68 66 65 64 64 64 65 67 69 71 73 74 76 76 77 79 81
78 77 76 76 74 72 69 67 65 63 61 60 62 70 81 86 87 88 88 88 88 88 88 88 88 88 88 88 88 88 88 88 88 88 88 88 88 88 88 86 84 83 82 82 81 80 78 76 74 72 70 70 70 70 70 70 70 71 72 74 76 77 79 79 78 76 74 73 71 68 66 64 63 63 63 64 66 68 70 72 73 74 76 76 78 80
77 76 76 76 74 72 70 67 64 62 60 63 71 80 87 88 88 88 88 88 88 88 88 88 88 88 88 88 88 88 88 88 88 88 88 88 88 88 88 88 86 85 84 83 81 80 78 77 75 74 72 72 71 70 70 70 70 70 71 72 74 76 78 78 78 77 76 74 72 69 66 64 63 63 63 64 66 67 68 70 72 73 74 76 77 78
77 76 76 75 74 71 69 65 63 63 65 73 80 85 87 87 86 86 86 87 88 88 88 88 88 88 88 88 88 88 89 89 89 89 89 89 88 88 88 88 87 86 85 84 82 80 79 78 76 75 74 74 73 72 71 70 70 70 71 72 73 74 76 77 78 78 77 74 71 69 67 65 64 63 63 64 66 66 68 69 70 72 74 75 76 78
76 76 76 74 72 70 67 66 68 72 77 81 84 85 86 86 86 85 85 85 86 86 87 88 87 86 85 85 86 87 88 88 88 88 88 88 88 88 88 88 88 87 86 85 83 81 80 79 78 76 76 75 74 74 72 71 71 71 72 73 74 74 76 77 78 78 77 74 72 69 68 66 65 64 64 65 66 66 67 68 70 72 74 74 76 78
76 75 74 73 72 71 72 76 79 82 83 83 84 84 85 86 86 85 84 84 84 84 84 85 84 84 82 82 84 86 87 87 87 88 88 88 88 88 88 88 88 88 88 86 84 82 80 79 78 77 76 76 76 74 73 72 72 73 74 74 76 76 76 77 78 78 76 74 73 71 69 67 66 65 65 66 66 66 66 68 69 71 73 74 76 78
74 74 74 76 78 80 83 83 83 83 83 83 84 84 85 86 86 85 84 82 81 80 81 81 82 82 81 80 81 83 86 87 88 88 88 88 88 88 88 88 88 88 88 87 86 84 82 80 78 77 77 76 76 74 73 73 73 74 74 76 76 76 76 76 76 77 76 76 74 72 70 68 66 66 66 66 66 66 67 68 69 71 73 74 76 78
76 77 79 81 82 83 83 83 84 84 84 84 85 85 85 85 84 83 82 80 78 76 76 76 77 77 77 77 78 80 82 85 87 88 88 88 88 88 88 88 88 88 88 87 86 85 84 82 80 78 78 77 76 74 74 74 74 74 76 76 77 77 76 76 77 77 77 76 74 73 71 69 68 67 67 67 67 67 67 68 69 71 72 74 76 79
84 84 84 84 84 84 84 85 85 86 86 86 86 85 85 84 83 81 80 78 77 76 76 76 76 75 74 74 74 76 77 80 83 85 87 88 88 88 88 88 88 88 88 88 87 86 85 84 82 80 79 78 76 75 74 75 76 76 76 77 78 78 78 78 79 79 78 77 76 74 72 70 69 68 68 68 68 68 67 68 69 70 72 74 76 79
85 85 85 85 86 86 86 87 87 86 86 86 85 84 83 82 81 80 79 78 78 77 76 76 76 76 76 74 74 74 76 76 78 80 83 86 88 88 88 88 88 88 88 88 88 87 86 85 84 82 80 79 77 76 76 76 77 78 78 79 79 79 79 80 80 80 79 78 76 74 73 72 70 70 68 68 68 68 68 68 69 70 72 74 77 80
86 86 86 86 86 87 87 87 86 86 85 84 83 82 80 80 79 78 78 78 79 79 79 78 78 77 76 76 76 76 76 76 76 77 79 83 86 88 88 88 88 88 88 88 88 87 86 86 84 83 82 80 79 78 77 78 79 80 81 81 80 80 80 80 81 81 80 78 77 76 74 73 72 70 69 69 68 68 68 68 69 70 72 74 77 80
87 87 87 87 87 86 86 86 86 85 84 82 81 80 79 79 79 79 78 78 78 77 76 76 76 75 74 74 74 74 74 74 74 76 77 80 84 86 87 88 88 88 88 88 88 88 87 86 86 84 84 82 82 81 80 81 82 82 82 82 81 80 80 80 80 80 80 79 78 76 76 74 73 71 70 69 69 69 68 68 69 70 72 74 77 80
87 87 87 87 87 87 86 86 85 84 82 81 79 78 77 76 76 76 76 75 74 74 72 72 72 72 72 73 74 74 74 74 75 76 78 80 82 84 86 87 88 88 88 88 88 88 88 87 86 85 84 84 84 84 84 84 84 84 83 82 81 80 79 79 79 79 79 79 78 77 77 76 74 72 70 69 69 69 69 68 68 70 72 74 77 80
87 87 87 87 87 86 86 84 83 81 79 78 76 75 74 74 74 74 74 74 73 72 71 71 71 72 72 73 74 76 77 78 78 80 82 84 85 86 86 87 88 87 87 87 88 88 88 87 86 85 84 85 85 86 86 86 85 84 82 81 80 80 79 78 78 78 78 78 78 78 78 77 75 73 71 70 70 70 70 68 68 69 71 74 77 80
Wind_Speed
48 47 47 46 47 47 48 48 49 49 50 50 50 50 50 51 51 51 51 51 50 50 49 49 48 47 46 45 43 42 40 39 38 37 36 35 34 34 33 33 33 34 34 34 35 36 37 37 38 39 39 40 40 41 41 42 43 43 44 45 45 46 47 48 49 50 50 50 49 48 47 46 45 45 48 49 50 51 51 49 47 46 46 47 47 48
47 47 47 46 47 48 49 49 49 50 50 51 51 51 50 50 50 50 50 49 48 48 47 46 45 44 43 42 40 38 37 35 34 33 32 32 31 31 31 31 31 31 32 32 32 33 33 34 35 36 36 37 38 39 39 40 41 42 43 43 44 45 46 47 48 48 49 49 49 49 48 47 46 47 49 50 50 49 49 47 46 46 46 47 47 48
47 47 48 48 48 49 49 49 50 50 50 50 50 50 49 49 49 48 47 46 45 44 43 42 41 41 40 38 37 35 33 32 31 30 30 30 30 30 30 30 30 30 30 30 30 31 31 31 32 33 34 34 35 36 37 38 39 40 41 42 42 43 44 45 46 46 47 47 48 48 48 47 47 48 49 49 48 47 46 45 45 45 46 46 47 47
47 48 49 49 49 49 49 49 49 50 49 49 48 48 47 46 46 45 44 43 42 41 40 39 38 37 37 35 34 32 31 29 29 29 29 29 29 29 29 29 30 30 30 30 30 30 30 30 31 31 32 32 33 34 35 36 36 37 38 39 40 41 41 42 43 44 44 45 45 45 46 46 46 46 46 46 45 45 44 43 43 43 44 45 46 46
48 48 49 50 50 50 49 49 49 48 47 46 45 44 43 42 42 41 40 39 38 37 37 36 35 34 34 33 32 30 29 28 28 27 28 28 28 29 29 29 30 30 30 31 31 31 31 31 31 31 31 32 32 32 33 33 34 35 35 36 37 38 38 39 40 41 41 42 43 43 43 43 43 43 44 43 43 43 43 42 41 42 43 45 45 45
48 48 48 49 49 49 49 48 47 45 44 42 41 39 38 37 36 35 34 34 34 34 34 33 33 32 32 32 31 30 29 28 27 27 27 27 28 28 29 29 30 31 31 32 32 32 32 32 32 32 32 32 31 32 32 32 32 32 33 34 34 35 36 36 37 38 39 40 40 41 42 42 42 42 42 42 42 42 42 41 41 42 44 45 45 44
48 48 47 48 48 48 47 45 43 41 38 37 35 33 31 29 28 27 27 28 28 29 30 30 31 31 31 31 30 30 29 28 28 27 27 27 27 28 29 30 31 31 32 32 33 33 33 33 33 32 32 31 31 31 31 30 31 31 32 32 33 34 34 35 36 37 37 38 39 40 40 41 42 42 42 42 42 43 42 42 43 44 45 46 45 43
47 47 47 46 46 46 45 42 37 34 31 30 28 26 24 22 21 21 21 22 23 24 25 27 28 28 29 29 29 29 29 28 28 27 27 27 27 28 29 30 31 31 32 32 33 33 33 32 32 31 31 30 30 30 30 30 31 31 32 33 33 34 35 36 36 37 38 38 39 40 40 41 42 43 43 44 44 44 44 44 45 45 46 46 44 43
46 46 45 45 43 43 42 38 32 27 24 24 23 21 20 19 19 18 18 18 19 19 21 22 24 24 25 26 27 27 28 28 27 27 27 26 27 27 27 28 29 30 30 31 31 31 31 30 30 30 29 29 29 29 30 30 31 32 32 33 34 35 36 37 38 38 39 39 40 41 41 42 43 43 44 45 45 45 45 46 46 46 46 46 45 43
44 44 43 43 42 39 37 34 29 24 20 20 19 19 19 19 20 20 19 17 16 16 17 18 20 20 21 21 23 24 25 26 26 25 25 24 24 24 24 25 26 27 27 28 28 28 28 28 28 28 28 28 28 29 29 30 31 31 32 33 34 35 36 37 38 39 40 41 41 42 43 43 44 44 45 45 46 46 47 47 47 47 47 47 46 44
43 42 41 41 39 36 33 29 26 23 20 19 18 18 17 18 21 22 22 20 17 16 16 16 17 17 17 17 18 19 21 22 22 21 20 19 19 19 20 21 22 23 24 24 24 24 24 24 25 26 26 27 27 27 28 28 29 30 31 32 33 34 35 36 37 39 40 41 42 42 43 44 45 45 46 46 47 47 47 48 48 48 48 47 47 46
41 41 40 39 36 33 30 26 23 21 20 19 19 20 19 19 20 22 24 22 20 18 17 16 16 15 15 14 14 14 15 16 16 15 15 15 15 16 17 18 19 20 20 20 21 21 21 22 23 24 25 25 26 26 26 27 27 28 28 29 30 31 33 34 35 37 38 39 40 41 42 43 44 45 46 46 47 47 47 48 48 48 48 48 47 47
40 39 37 36 34 31 28 25 23 21 20 20 22 23 23 22 22 22 23 23 21 20 19 18 16 14 13 13 13 13 13 13 13 13 13 13 13 14 15 16 16 16 17 17 18 18 19 20 22 23 24 24 25 25 26 26 27 27 27 28 28 29 30 31 33 34 35 36 38 39 40 41 42 43 44 45 45 46 46 46 47 47 47 47 47 47
38 36 35 33 32 30 27 25 24 23 21 21 22 23 24 23 23 23 23 23 22 21 21 21 18 15 12 12 13 14 14 14 13 12 12 12 12 13 14 15 15 15 15 15 16 16 18 19 21 22 23 24 25 25 26 26 27 27 27 27 28 28 29 30 31 32 33 34 35 36 37 38 39 40 41 42 43 43 44 44 45 45 45 45 45 45
35 34 33 32 31 29 27 25 24 23 22 22 22 23 24 24 24 24 24 24 24 23 23 22 20 16 13 12 13 14 15 15 14 13 12 12 12 13 15 16 16 16 16 16 16 16 17 18 20 21 22 23 24 25 26 27 27 27 28 28 28 28 29 29 30 30 31 32 33 34 34 35 36 37 38 39 40 40 41 42 42 43 43 43 44 44
32 32 31 31 31 29 27 25 25 24 24 23 23 24 25 26 25 25 25 26 25 25 25 25 23 19 15 12 12 14 16 16 15 15 14 13 13 14 17 19 19 18 17 17 17 17 17 18 19 20 21 23 24 25 27 28 28 29 29 29 29 29 29 30 30 31 31 32 32 33 33 34 35 35 36 37 38 38 39 40 40 41 41 42 42 43
30 30 30 30 30 28 26 25 25 26 26 26 26 27 27 28 27 27 27 27 27 26 27 27 26 23 18 14 12 14 17 19 19 18 18 17 16 17 20 22 22 21 20 20 19 19 19 20 21 21 22 23 24 26 27 28 29 30 30 30 30 31 31 31 31 31 32 32 33 33 34 34 35 35 36 36 37 37 38 38 39 40 40 41 41 42
30 30 30 30 29 27 26 26 26 27 28 29 30 30 31 30 30 30 29 29 28 29 29 29 28 26 23 19 16 16 19 23 24 24 23 23 22 22 23 25 25 24 23 22 22 21 22 22 23 23 24 25 25 26 27 28 29 30 30 31 31 31 31 31 31 32 32 33 33 34 34 34 35 35 35 36 36 37 37 38 38 39 39 40 40 41
31 30 30 29 29 28 27 27 28 29 31 32 33 34 35 34 34 33 32 31 31 31 31 31 31 29 26 24 21 20 22 25 28 29 29 28 27 26 26 27 27 26 25 24 24 23 24 25 25 25 26 26 26 27 28 28 29 29 29 30 30 30 31 31 31 32 32 33 33 33 34 34 34 35 35 35 36 36 37 37 37 38 38 39 39 40
31 31 29 29 29 29 29 29 29 30 32 33 34 35 36 36 36 36 35 35 34 34 33 33 33 32 30 29 27 25 25 26 29 31 32 31 30 28 27 28 29 28 27 26 25 26 26 27 27 27 27 27 27 27 27 27 27 28 28 28 29 29 30 31 31 32 32 32 33 33 33 33 33 34 34 35 35 35 35 36 36 36 37 37 38 38
32 30 29 29 30 31 31 30 31 31 32 32 33 33 34 35 35 36 36 36 36 36 35 35 34 34 33 33 31 30 28 28 30 32 33 33 31 29 28 28 29 29 29 27 27 28 29 29 29 28 27 26 26 26 26 26 26 26 26 27 28 29 30 30 31 31 32 32 32 32 32 32 33 33 33 34 34 34 34 34 34 35 35 35 36 36
31 31 30 30 31 32 32 32 31 31 31 30 31 31 32 33 34 34 35 35 35 35 35 35 35 35 35 35 35 33 32 31 31 33 34 34 33 30 28 29 30 31 30 29 29 30 30 30 29 27 26 25 25 25 24 24 25 25 26 27 28 28 29 30 30 30 30 30 30 31 31 31 32 32 32 32 32 32 32 32 33 33 33 33 34 34
33 33 32 32 32 33 32 32 31 30 30 30 31 32 32 33 33 34 34 34 34 34 34 34 35 35 36 36 36 35 34 34 34 34 35 36 35 32 30 31 32 33 32 32 32 32 32 30 28 26 24 24 23 23 23 24 24 25 26 26 27 28 28 28 28 28 28 28 29 29 29 30 30 31 31 31 31 31 31 31 31 31 31 31 32 32
34 35 34 34 34 33 33 32 31 31 31 31 31 32 32 32 33 33 34 34 34 34 34 35 36 36 36 36 36 36 36 36 36 37 37 38 37 35 33 33 34 34 34 33 33 33 32 29 26 24 22 22 22 22 22 23 24 24 25 26 26 26 26 26 26 26 26 27 27 27 28 28 29 29 29 29 29 29 29 29 29 29 29 29 29 30
34 34 34 34 33 33 33 32 32 31 31 31 31 31 31 31 32 34 35 35 35 35 35 36 37 37 37 37 37 37 37 36 37 38 39 39 38 36 34 34 34 35 35 34 34 33 31 27 24 22 21 20 21 21 22 22 23 24 24 25 25 25 25 25 25 25 25 26 26 26 27 27 27 28 28 28 27 27 27 27 27 27 27 27 27 28
34 33 33 33 32 32 32 32 32 32 32 31 30 30 32 33 35 36 36 36 36 36 37 37 38 38 38 38 39 39 38 37 37 37 38 38 38 37 34 33 33 34 34 34 33 31 29 26 23 20 20 19 20 20 21 21 22 23 24 24 25 25 25 25 25 24 24 24 25 25 25 26 26 26 26 26 25 25 25 25 25 25 25 25 25 26
36 35 35 33 32 32 32 33 33 32 31 31 31 32 34 35 37 38 38 38 37 38 39 39 40 40 41 41 41 40 39 38 37 37 37 37 37 36 34 33 33 34 34 33 31 29 27 24 22 20 19 19 19 19 20 20 21 22 23 24 24 25 25 25 24 24 24 24 24 24 24 24 25 25 24 24 24 23 23 23 23 23 24 24 24 24
38 37 36 34 33 32 32 33 32 31 30 29 30 32 34 36 38 39 39 39 39 40 41 42 42 43 44 44 43 42 40 39 37 37 37 37 37 36 34 33 33 33 33 32 30 28 26 23 21 20 19 18 18 18 19 20 21 22 23 24 24 24 25 24 24 24 23 23 23 23 23 23 23 23 23 23 22 22 22 22 22 22 23 23 22 22
38 38 36 33 31 30 30 31 30 28 28 28 29 31 33 35 37 39 40 41 42 42 43 44 45 45 45 45 44 42 40 38 36 36 36 37 37 36 34 33 33 33 32 32 30 27 25 23 22 20 19 18 18 18 18 19 21 22 23 23 24 24 24 24 24 24 24 23 23 23 23 23 22 22 22 22 22 21 21 21 22 22 22 22 22 21
38 38 36 33 30 29 29 29 29 28 28 29 30 32 33 35 37 39 41 42 43 44 45 46 46 45 45 44 43 41 39 37 35 34 35 36 36 35 34 33 33 32 31 31 29 27 25 23 21 21 20 19 18 18 18 19 20 21 22 23 23 24 24 24 24 24 24 24 23 23 23 22 22 22 22 21 21 21 20 21 21 22 22 21 21 21
38 38 37 34 31 29 30 31 31 31 31 31 32 34 35 37 39 40 42 43 44 44 45 45 45 44 42 41 40 39 38 35 34 33 34 34 34 34 33 33 32 31 31 30 29 27 25 23 21 21 20 19 18 17 17 18 19 20 21 22 22 23 24 24 24 24 24 24 24 23 23 23 22 22 22 21 21 20 20 20 21 21 21 21 21 21
36 38 39 37 35 33 33 33 33 33 33 33 34 36 37 39 40 41 42 42 43 43 43 43 42 40 39 38 37 37 36 34 33 32 32 33 33 33 32 32 31 31 30 29 28 27 26 24 22 21 20 19 18 18 18 18 19 20 20 21 22 23 24 24 25 25 24 24 24 24 23 23 22 22 22 21 21 20 20 20 20 20 21 21 21 20
35 38 40 40 39 37 37 36 35 35 35 36 36 37 39 40 40 41 41 40 40 40 39 39 38 37 36 35 35 34 33 31 30 30 30 31 31 31 31 31 31 30 29 28 27 26 25 24 22 21 21 20 20 19 18 18 19 20 20 21 22 23 24 24 25 25 25 24 24 24 23 23 23 22 22 21 21 20 20 20 20 20 20 20 20 20
35 37 39 40 40 40 40 39 38 38 38 38 38 39 39 39 39 38 38 37 36 36 35 34 34 33 33 33 32 31 30 28 28 28 28 29 30 30 30 30 30 29 29 28 26 25 24 23 22 21 21 21 20 20 19 19 19 19 20 21 22 23 24 24 25 25 25 25 24 24 23 23 22 22 22 21 21 20 20 19 19 20 20 20 20 20
34 36 37 39 40 41 42 42 41 40 39 39 39 39 39 38 37 35 34 32 31 31 30 30 29 29 29 30 29 29 27 26 26 26 27 28 28 29 29 29 29 28 28 27 26 25 24 22 21 21 21 21 20 20 19 19 19 19 20 21 21 22 23 24 25 25 25 25 24 24 23 23 22 22 21 21 20 20 20 19 19 19 19 19 19 19
31 33 34 36 38 40 42 42 42 41 40 40 39 39 37 35 33 31 29 27 26 26 26 25 25 26 26 26 27 27 26 25 25 25 26 27 27 28 29 28 28 28 28 27 26 25 24 23 22 21 21 21 20 20 20 20 19 19 19 20 21 22 23 24 24 25 25 24 24 24 23 23 22 22 21 21 20 20 19 19 19 19 19 19 19 19
31 32 32 34 36 38 40 41 41 40 40 39 38 36 34 31 28 26 24 23 22 22 22 22 22 22 23 24 25 26 26 26 26 26 26 26 27 27 28 28 28 27 27 27 27 26 25 23 22 21 21 20 20 20 20 20 20 19 19 20 20 21 22 23 24 24 24 24 24 24 23 23 22 22 21 20 20 19 19 19 19 19 18 18 18 18
31 32 32 33 35 36 38 38 39 39 38 37 35 32 29 27 25 23 21 20 20 20 20 20 20 20 21 22 23 24 25 26 26 26 26 26 27 27 28 28 28 27 27 27 27 26 25 24 23 22 21 20 20 21 21 21 20 20 20 20 20 21 21 22 23 24 24 24 24 24 23 23 22 22 21 20 20 19 19 19 19 19 18 18 18 17
31 32 32 33 34 35 36 37 36 36 35 33 31 28 26 24 22 21 20 19 19 19 19 19 18 19 19 20 21 22 23 24 24 25 25 26 26 27 28 28 28 28 28 27 27 26 25 24 23 22 21 21 21 21 21 21 21 21 21 20 20 21 21 22 23 23 23 24 24 24 24 23 23 22 21 20 20 19 19 18 18 18 18 18 17 17
30 31 32 33 34 35 35 35 34 33 31 29 27 25 23 22 21 21 20 20 20 19 19 19 18 18 18 18 19 19 20 21 22 23 24 25 25 26 27 28 28 28 28 28 27 27 26 25 23 22 22 22 22 22 22 22 22 22 22 21 21 20 21 22 22 23 23 24 24 24 24 24 23 23 22 21 20 19 19 18 18 18 18 17 17 16
29 30 31 32 32 33 32 32 31 29 27 26 24 23 22 22 21 21 21 20 20 20 20 20 19 19 19 18 19 19 20 20 21 21 22 23 24 25 25 26 27 28 28 28 28 27 26 25 24 23 23 23 23 23 23 23 23 23 23 22 21 21 21 21 22 22 23 23 24 24 24 24 24 23 23 22 21 20 19 19 18 18 17 17 16 16
26 27 28 29 29 29 28 28 26 25 24 24 23 23 22 22 22 22 21 21 21 21 21 21 21 20 20 20 20 20 21 21 21 21 22 22 22 23 24 24 25 26 27 28 28 27 27 26 25 25 24 24 24 24 24 24 24 23 23 22 22 22 21 22 22 22 23 23 24 24 24 25 24 24 23 22 21 20 20 19 18 17 17 16 16 15
25 25 26 26 25 25 24 24 23 23 22 22 22 22 22 22 23 23 22 22 22 22 22 22 23 22 22 22 21 21 22 22 22 22 22 22 22 22 22 23 24 24 25 26 27 27 27 26 26 26 25 25 26 26 25 25 24 24 23 22 22 22 22 22 22 23 23 23 24 24 25 25 25 24 24 23 22 21 20 19 18 17 16 16 15 15
23 23 22 22 22 22 22 22 22 22 22 21 21 21 22 22 22 23 23 23 23 23 24 24 24 24 24 24 23 23 23 23 23 23 23 23 23 22 22 22 23 23 24 25 26 26 26 26 26 26 26 26 26 26 26 25 24 24 23 22 22 23 23 23 23 23 23 24 24 25 25 25 25 24 24 23 22 21 20 19 18 17 16 15 15 14
21 20 20 20 20 21 21 22 22 21 21 21 21 21 21 22 22 23 23 24 24 25 25 26 26 26 26 26 25 25 25 25 25 25 25 24 24 24 23 23 23 23 24 24 25 25 26 26 26 26 26 26 27 26 26 25 24 24 23 23 23 23 23 24 24 24 24 24 24 25 25 25 24 24 24 23 22 21 20 18 17 17 16 15 14 13
20 20 20 20 20 20 21 21 21 21 21 21 20 21 21 22 23 24 24 25 26 27 27 27 28 28 28 28 27 27 27 27 26 26 26 26 26 25 25 25 24 24 24 24 25 25 25 25 26 26 26 26 26 26 25 24 24 23 23 23 24 24 24 24 24 24 25 25 25 25 25 25 24 24 23 23 22 21 19 18 17 16 15 14 13 12
21 21 20 20 20 20 20 20 20 20 20 20 20 21 21 22 24 25 26 27 28 28 29 29 29 30 30 30 30 29 29 29 28 28 28 27 27 27 27 26 26 26 26 26 26 26 26 26 26 26 26 26 26 25 24 24 23 23 24 24 24 24 24 24 24 25 25 25 25 25 25 25 24 24 23 22 21 20 19 18 16 16 15 14 13 12
21 20 20 20 20 20 19 19 19 19 19 20 20 21 22 23 25 26 27 28 29 30 30 31 31 31 31 31 31 31 31 30 30 29 29 29 28 28 28 28 28 28 27 27 27 27 27 27 27 27 27 26 26 25 24 24 24 24 24 25 25 25 24 24 25 25 25 26 26 26 25 25 24 23 22 21 20 19 18 17 16 15 14 13 12 11
20 20 20 20 19 19 19 18 18 19 19 20 21 22 23 24 25 27 28 29 30 30 31 31 31 31 31 31 31 31 31 31 31 30 30 29 29 29 29 29 29 29 29 28 28 28 28 28 28 28 27 27 26 26 25 25 25 25 25 25 25 25 25 25 25 25 26 26 26 26 25 24 23 22 21 20 19 18 17 16 15 14 14 13 12 11
21 20 20 19 19 18 18 18 18 19 20 21 23 24 25 26 27 28 29 29 30 31 31 31 31 31 31 31 31 31 31 30 30 30 29 29 29 29 29 29 29 29 29 29 29 29 29 29 29 29 28 28 27 27 26 26 26 26 26 26 26 26 25 25 25 25 25 25 25 25 25 24 23 22 21 20 19 18 17 16 15 14 13 13 12 11
21 20 20 19 19 18 18 19 20 21 22 24 25 26 27 27 28 29 29 30 30 30 31 31 30 30 30 29 29 29 29 29 28 28 27 27 27 27 28 28 28 29 29 29 29 29 29 29 29 29 28 28 28 27 27 26 26 26 26 26 26 26 26 26 25 25 25 25 25 24 24 23 22 21 20 19 18 17 16 15 14 13 13 12 12 11
Wind_Direction
295 295 295 296 295 295 295 294 294 293 292 292 292 291 291 291 291 291 292 292 292 292 292 292 291 291 291 292 292 292 291 290 289 288 287 286 284 283 281 279 277 275 274 272 271 271 270 269 269 268 268 267 266 266 265 265 265 265 264 264 263 263 263 263 264 264 264 264 264 264 264 263 264 265 264 263 262 262 263 263 262 262 261 260 258 257
295 295 295 295 294 293 293 293 292 292 291 291 291 291 291 291 291 292 292 292 292 292 292 291 291 291 291 291 291 291 290 289 288 287 286 285 283 282 280 278 276 274 273 271 271 270 269 269 268 268 268 267 266 266 265 265 264 264 264 264 263 263 264 264 265 265 266 266 266 266 265 264 264 264 263 263 263 263 264 264 263 261 260 259 258 256
295 295 295 294 293 292 292 292 291 291 291 291 291 291 292 292 292 292 292 291 291 291 291 290 290 290 290 290 290 289 288 287 287 286 285 284 283 281 280 278 276 275 273 272 271 270 270 269 269 268 268 267 267 266 266 265 264 264 264 264 264 264 264 265 265 266 266 267 267 267 267 266 266 266 266 266 267 267 266 265 264 263 262 260 259 258
295 295 294 293 292 292 291 291 291 291 291 291 292 292 292 292 292 291 291 290 290 289 289 288 288 288 288 287 287 286 285 285 284 284 284 283 283 282 281 280 278 277 276 275 274 273 272 271 270 269 269 268 268 267 267 266 266 266 265 265 265 265 265 265 266 266 266 267 267 267 268 268 268 268 269 270 270 270 269 268 267 266 264 262 261 259
294 294 293 292 292 291 291 291 291 291 291 292 292 292 292 292 292 291 290 289 288 287 286 285 284 284 284 283 283 282 282 281 281 281 282 282 282 282 282 281 281 281 280 279 278 277 276 275 274 273 272 271 271 270 270 269 269 268 268 268 267 267 267 267 267 267 267 267 267 267 268 268 268 269 269 270 270 270 270 270 269 267 266 264 262 260
294 293 292 291 291 291 291 291 291 292 293 293 293 292 292 292 292 291 290 289 287 286 284 282 280 279 279 278 278 278 277 277 277 277 278 279 280 280 281 282 282 282 281 281 281 281 280 279 279 278 277 277 276 275 274 274 273 272 271 271 270 270 269 269 269 269 268 268 268 268 268 267 267 267 267 267 267 267 267 267 266 265 264 264 263 261
293 292 291 291 291 291 291 292 293 294 295 294 293 292 292 292 292 293 292 291 289 286 284 281 278 276 274 274 274 274 274 274 274 274 275 276 277 279 280 280 280 280 280 281 281 281 281 281 281 281 281 281 281 280 279 278 277 276 275 274 273 273 272 271 271 270 270 269 269 268 268 268 267 267 266 266 266 265 265 264 264 264 264 264 264 263
293 292 292 291 291 291 291 292 294 295 295 294 292 292 292 292 294 295 295 294 293 291 288 284 280 276 273 272 271 271 272 272 272 273 273 275 276 278 278 278 278 278 279 279 279 280 281 281 282 283 283 284 284 283 282 281 280 279 278 277 276 274 273 273 272 271 270 270 269 269 269 268 268 268 268 268 267 267 267 266 266 266 266 267 267 266
293 293 293 292 291 291 292 292 293 293 293 291 291 293 294 295 295 295 294 296 298 298 295 291 285 280 276 273 271 271 271 271 272 273 274 275 276 277 277 277 277 277 278 278 279 280 281 282 283 284 284 284 283 283 282 281 280 279 277 276 275 274 273 273 272 271 271 270 270 269 269 269 268 268 268 269 269 269 269 269 269 269 269 269 270 269
294 293 293 292 291 291 291 290 290 290 289 288 289 293 298 299 298 297 295 296 300 303 301 298 293 288 282 276 273 271 271 271 272 273 274 275 276 276 277 277 277 278 278 279 280 280 281 282 283 282 282 281 281 280 279 279 278 277 276 275 274 273 272 272 271 271 270 270 269 269 269 268 268 268 268 269 269 269 270 270 270 270 271 271 271 271
294 293 292 292 291 290 289 288 288 288 288 287 287 291 296 299 299 299 297 297 299 303 303 301 298 295 290 283 276 272 271 271 271 272 273 274 276 277 278 279 280 280 280 280 280 281 281 280 280 279 278 278 278 278 278 278 277 276 274 273 273 272 271 271 270 270 269 269 269 268 268 268 268 268 269 269 269 270 270 271 271 271 272 272 273 272
293 293 293 292 291 291 290 289 289 289 290 290 291 293 294 296 298 299 299 300 302 304 304 302 300 300 299 294 287 279 275 273 272 271 271 272 275 278 280 281 282 282 282 281 280 280 279 278 277 277 278 278 279 280 280 280 278 277 276 274 273 272 272 271 271 270 270 269 269 269 269 269 269 269 269 270 270 271 271 272 272 273 273 274 274 273
293 293 293 293 293 293 294 294 294 295 295 296 296 296 296 297 298 299 300 302 304 306 306 303 301 301 303 302 299 294 287 281 277 273 271 272 275 279 281 282 282 283 282 281 280 279 279 278 279 280 281 282 283 284 283 283 282 281 279 277 276 275 274 273 273 272 272 271 271 271 270 270 270 270 270 271 271 272 272 273 273 274 274 274 274 273
294 294 295 294 295 295 296 298 299 300 301 301 301 300 300 300 301 302 302 303 305 306 305 303 301 300 301 303 303 300 295 288 282 277 274 274 277 281 284 284 284 284 284 282 282 281 281 281 282 284 285 286 286 286 286 285 284 283 282 280 279 278 276 275 275 274 274 273 273 272 272 272 272 271 272 272 272 272 273 273 273 274 274 274 273 273
294 294 294 294 295 295 297 299 300 302 304 306 306 305 305 305 306 306 306 306 306 306 304 302 299 296 296 300 301 299 296 291 285 280 276 276 279 285 288 289 289 288 287 286 284 283 283 283 284 285 286 287 288 288 287 286 286 285 284 282 281 280 278 277 277 276 275 275 274 274 274 273 273 273 273 273 273 273 273 274 274 274 274 274 273 273
291 291 292 292 292 293 295 297 300 302 304 306 306 306 306 307 308 309 308 308 307 306 304 303 300 295 290 290 296 299 298 294 289 285 281 279 281 286 290 291 292 291 290 289 287 286 285 284 284 285 286 287 288 288 287 286 285 284 283 283 282 281 280 279 278 278 277 277 276 276 276 275 275 275 275 275 275 275 275 275 275 275 275 275 274 274
288 288 288 288 289 291 294 296 298 300 302 303 303 303 303 304 306 307 307 307 306 304 303 303 302 298 291 286 289 298 301 299 296 292 288 285 285 287 290 292 292 292 291 290 289 288 287 285 284 284 285 286 286 286 286 285 284 284 283 283 283 282 282 281 281 280 280 279 279 278 278 277 277 277 277 277 277 277 277 277 277 277 277 276 276 275
284 284 284 285 287 290 293 295 297 299 300 300 300 300 300 301 302 303 303 303 303 302 301 301 300 298 294 288 288 295 300 302 300 298 295 291 289 289 290 292 292 293 292 292 291 291 290 289 288 287 287 286 286 285 284 284 284 284 284 284 285 285 285 284 283 282 282 281 280 280 279 279 279 279 279 279 279 279 279 279 279 278 278 277 277 276
278 278 280 282 285 289 291 293 295 297 298 298 298 297 297 297 298 299 299 299 299 299 299 299 298 297 295 290 287 290 296 299 301 301 299 295 293 292 292 292 293 294 294 294 294 294 293 293 292 291 290 289 287 286 285 284 284 284 285 286 286 287 287 286 285 284 283 282 282 282 282 281 282 281 281 281 281 281 281 280 280 279 279 278 277 276
273 274 276 280 283 286 288 291 294 296 297 296 295 294 294 295 296 296 296 295 294 294 295 295 296 296 295 292 289 289 292 296 300 301 300 297 295 294 294 294 295 295 295 296 296 295 295 295 294 293 291 289 288 286 285 285 285 285 286 287 287 287 287 286 286 285 285 285 285 285 284 284 284 283 283 283 282 282 282 281 281 280 279 278 277 276
271 272 275 278 281 283 286 290 293 295 295 294 293 293 295 296 297 296 294 292 291 290 290 291 293 294 296 295 293 292 291 295 298 300 298 296 295 295 296 297 297 297 297 297 297 297 297 296 295 293 290 288 286 286 286 285 286 286 287 287 287 287 287 287 287 287 287 287 287 287 287 286 286 285 285 284 284 283 283 283 282 281 280 279 278 277
270 271 273 274 276 278 282 287 291 294 295 295 296 297 298 298 297 296 294 292 289 287 287 288 290 293 294 295 294 292 291 292 294 295 295 294 294 295 297 299 299 299 299 299 300 299 298 296 294 290 287 285 284 285 285 285 286 287 288 288 288 288 288 288 289 289 289 290 290 290 289 289 288 287 286 286 285 285 285 284 283 283 281 280 279 277
269 270 271 272 273 276 280 286 291 295 296 296 296 296 295 294 294 294 293 292 290 288 287 288 289 291 292 292 292 291 290 289 290 291 292 292 293 295 298 300 300 300 301 302 302 301 299 295 292 287 283 282 282 283 284 285 287 288 289 289 289 290 290 291 291 292 292 293 293 293 292 291 290 289 288 288 288 287 287 286 285 284 282 280 279 277
267 268 270 271 273 276 281 288 293 295 295 294 293 292 291 291 290 291 291 291 291 290 290 290 290 291 291 291 291 291 290 289 290 290 291 291 293 295 297 299 300 300 301 302 302 301 298 293 288 283 280 279 280 282 284 286 288 289 290 291 291 292 292 294 295 296 297 297 296 296 294 293 292 291 291 290 290 290 289 288 286 284 283 281 279 278
266 267 268 270 273 277 283 288 292 293 291 290 290 290 290 289 289 289 289 290 291 292 293 293 293 293 293 293 293 292 291 290 290 290 290 291 291 293 294 296 297 297 299 300 299 298 295 290 285 280 278 278 280 283 285 287 289 290 291 292 293 294 295 297 298 299 300 300 299 298 297 296 295 294 293 293 292 292 291 289 287 285 284 282 280 279
266 266 266 268 271 275 281 285 286 286 285 284 285 286 286 286 287 287 288 289 291 292 292 292 292 293 294 294 294 293 292 291 290 289 289 289 289 289 291 292 294 295 296 297 296 295 291 286 281 278 277 278 280 283 286 289 291 292 293 293 295 296 297 298 300 301 302 302 301 300 299 298 297 296 296 295 294 293 292 290 288 286 285 283 281 280
265 265 265 267 271 275 279 280 279 279 280 281 282 283 284 285 285 286 286 287 288 289 289 290 291 293 294 295 295 294 293 292 290 289 289 289 288 288 289 290 292 293 294 295 295 292 288 283 279 277 277 279 281 284 287 290 291 292 293 295 296 297 298 299 301 302 303 303 303 302 302 301 300 299 298 298 297 295 294 292 290 288 286 285 283 283
263 263 264 268 272 276 277 276 276 278 280 282 283 284 284 284 284 285 285 286 286 287 287 289 290 292 294 294 295 294 293 292 291 290 290 289 288 287 288 290 291 292 294 295 293 289 285 281 279 278 279 280 282 285 288 290 291 293 294 295 296 297 298 299 300 302 303 304 304 304 304 303 303 302 302 301 299 297 296 294 292 290 288 287 286 286
260 260 262 266 271 274 274 274 275 278 281 283 283 284 284 284 285 285 286 286 286 287 287 288 289 291 292 293 292 292 290 290 289 289 289 287 286 286 287 288 290 292 293 293 291 287 282 280 279 279 279 280 282 285 287 289 290 292 293 294 295 296 297 298 300 301 303 304 305 306 306 306 306 305 305 304 302 300 298 296 294 292 290 289 289 288
258 257 258 262 266 271 273 274 276 279 281 283 284 284 285 285 286 287 287 287 287 287 288 288 288 289 290 290 290 289 288 288 287 287 286 285 284 284 285 287 289 290 292 292 289 285 281 278 277 277 279 280 281 283 284 286 288 290 291 292 293 294 295 297 298 300 302 304 305 307 308 309 309 309 308 307 305 303 301 299 296 294 292 291 290 290
256 254 253 255 260 267 272 275 278 280 282 283 284 285 286 287 288 288 289 289 289 288 288 288 288 289 289 288 288 287 287 286 286 285 284 283 283 283 284 286 288 289 290 289 287 284 280 277 276 276 278 278 279 280 281 284 286 288 289 290 291 292 293 295 297 299 301 303 305 307 309 310 311 311 310 309 308 306 304 301 298 296 294 293 292 292
257 253 251 251 255 261 268 273 276 279 281 283 285 286 288 289 290 290 290 290 289 289 289 289 289 288 287 286 285 285 285 285 284 284 283 283 282 282 284 285 287 288 288 286 283 281 279 278 278 278 279 280 280 280 282 284 286 287 288 288 289 290 292 294 296 298 301 303 305 307 309 311 312 312 312 312 310 308 306 303 301 299 297 296 294 293
259 255 252 252 254 259 266 270 274 277 280 283 285 287 289 290 291 291 291 290 290 289 289 289 288 288 286 285 283 282 282 282 283 282 282 282 282 282 284 285 286 286 285 284 281 279 277 277 278 279 280 281 281 282 284 286 288 288 288 288 288 289 291 294 296 298 300 302 304 306 308 310 312 313 314 313 312 311 308 306 304 301 300 298 297 296
261 258 256 256 258 261 265 269 273 276 279 282 285 287 289 290 290 290 289 289 289 289 289 288 287 287 285 284 282 281 281 281 281 281 281 281 282 282 283 284 284 284 284 283 281 279 277 277 278 279 280 279 280 282 285 287 287 287 287 287 288 290 291 294 296 298 300 301 303 305 307 309 311 313 314 314 314 312 310 308 306 304 302 301 300 298
264 262 261 261 262 264 266 269 272 275 279 282 285 287 289 289 289 288 288 288 288 288 288 287 286 285 284 283 283 282 281 281 280 280 280 280 281 281 282 282 282 283 283 282 281 280 279 278 278 278 278 278 279 281 284 285 285 285 285 286 287 289 291 293 295 297 299 301 302 304 306 308 310 312 314 315 314 313 311 309 306 304 303 301 301 300
273 270 268 267 267 267 268 269 272 275 279 282 285 287 288 288 288 288 289 289 289 289 288 288 287 285 284 283 283 283 282 281 280 279 278 278 279 279 280 280 280 281 281 281 281 281 280 279 278 277 277 278 280 282 283 283 283 283 283 284 285 287 290 292 294 296 298 300 302 303 305 307 309 312 314 315 315 314 311 309 306 304 302 301 301 300
280 277 275 273 272 271 271 271 273 276 280 283 285 286 286 287 288 289 290 290 290 290 290 290 289 287 286 284 283 283 283 281 280 278 277 277 277 277 277 278 278 278 279 279 279 279 279 278 277 277 277 279 281 283 283 283 282 282 282 282 283 285 288 290 293 295 297 299 301 302 304 306 308 310 313 315 315 314 312 309 306 303 302 301 300 300
274 274 275 275 274 274 274 275 277 279 281 283 284 285 285 286 288 289 290 290 291 291 291 290 290 288 286 285 284 283 283 281 280 279 278 277 276 276 275 275 276 276 276 276 277 277 277 276 277 277 278 280 282 283 283 283 282 282 281 281 282 284 287 289 291 294 296 298 300 301 303 305 307 309 312 314 315 314 312 309 306 304 302 301 300 301
269 271 273 274 276 277 278 279 280 281 282 283 283 283 284 286 287 288 289 290 291 291 291 291 291 290 289 287 286 285 283 282 281 279 278 276 275 275 274 274 274 274 274 274 274 274 274 275 276 277 279 281 282 283 283 283 283 282 281 281 282 284 286 288 290 293 295 297 299 301 303 304 307 309 311 314 315 314 312 309 306 304 302 301 301 302
269 271 273 275 277 278 279 281 282 283 283 283 282 282 283 284 285 286 287 289 290 291 292 292 293 293 293 293 291 289 287 285 283 281 279 277 276 275 274 274 274 273 273 273 273 273 274 274 275 277 279 281 282 282 282 283 282 282 281 281 281 283 285 287 289 292 294 296 298 300 302 304 306 308 310 313 314 314 312 310 307 305 303 302 301 302
273 273 275 276 277 279 281 282 283 284 284 283 282 282 281 281 281 282 283 285 287 289 290 291 292 293 293 294 294 292 291 289 286 284 282 280 278 277 276 275 275 274 274 274 273 274 274 275 276 277 279 280 281 281 282 282 281 281 281 281 281 282 283 286 288 290 292 294 297 299 301 303 305 307 309 312 313 313 312 310 308 306 303 302 301 302
277 277 277 278 279 281 282 284 285 285 285 284 283 282 281 280 280 280 281 283 285 287 288 289 289 290 290 290 290 290 290 290 289 287 285 283 281 280 278 277 276 275 275 274 274 274 275 276 276 277 278 279 280 280 280 280 280 280 281 281 281 282 283 285 287 288 290 293 295 298 300 302 304 306 308 310 311 312 312 311 309 306 304 302 301 301
279 279 279 280 281 283 284 286 287 287 287 286 285 284 283 282 282 282 283 284 285 286 287 287 288 288 288 287 287 287 287 287 287 287 286 285 283 281 280 278 276 275 274 274 274 274 275 276 276 277 278 279 279 279 279 279 279 279 279 280 281 281 282 284 285 286 289 291 294 296 299 301 302 304 306 308 309 311 311 311 309 306 304 302 301 301
281 281 282 283 285 287 288 290 291 291 290 289 287 286 285 284 285 285 285 286 286 286 286 287 287 287 287 287 286 285 284 284 284 284 284 284 283 281 280 278 276 275 274 274 274 274 275 275 276 277 278 278 278 279 279 279 278 278 278 279 279 280 281 282 284 285 288 290 292 294 297 299 301 302 304 305 307 309 310 310 309 306 303 301 300 299
287 287 288 289 290 291 293 293 293 293 292 290 288 287 286 285 286 286 287 287 286 286 286 287 287 287 287 286 286 284 283 282 281 280 280 280 280 279 278 277 276 274 273 273 273 273 274 275 276 277 277 277 278 278 278 278 278 277 277 276 277 278 279 281 283 285 286 288 290 292 295 297 299 300 302 303 305 307 309 309 308 305 302 300 298 297
291 291 291 291 292 293 293 293 293 292 291 289 288 287 286 286 287 287 288 288 288 288 288 288 288 288 287 287 285 284 283 281 279 278 277 276 276 276 276 275 274 273 273 272 272 273 273 274 275 276 276 277 277 277 277 277 276 275 275 274 275 276 278 280 282 284 285 287 288 291 293 295 297 298 300 301 303 306 307 307 306 304 301 298 296 294
289 289 290 291 291 291 291 291 291 290 290 289 288 288 288 289 289 290 290 290 290 290 290 289 289 288 287 287 286 284 282 281 279 277 275 274 273 273 272 272 272 271 271 271 271 272 273 273 274 275 275 276 276 277 277 276 275 273 273 272 273 274 276 278 280 282 283 285 287 288 290 292 294 296 297 299 301 303 305 306 305 302 299 296 293 291
286 287 288 289 290 290 290 290 290 291 290 290 291 291 292 292 293 292 292 292 291 291 290 289 288 287 287 286 285 284 282 281 279 277 275 273 271 270 269 268 268 268 269 269 270 270 271 272 273 273 274 275 275 276 276 275 273 272 271 271 272 273 275 276 278 279 281 283 284 286 288 289 291 293 294 296 298 301 303 304 303 300 296 293 289 286
284 286 287 288 290 290 291 292 292 293 293 293 294 294 295 295 294 294 293 292 292 291 290 289 289 288 287 286 285 283 282 281 279 277 275 273 271 269 268 267 267 267 267 267 268 269 269 270 271 271 272 273 274 274 274 273 272 271 271 271 271 272 273 274 275 277 278 280 281 283 285 287 288 290 291 293 295 298 299 301 300 297 293 289 285 281
284 286 288 289 291 292 293 294 295 296 296 296 297 297 296 296 295 295 294 294 294 293 293 292 291 290 289 287 285 283 281 279 278 276 275 273 271 270 269 268 268 267 267 267 267 268 268 268 269 270 271 271 272 272 272 272 271 271 271 271 271 272 273 273 274 274 275 277 279 281 282 284 285 287 288 290 292 294 295 296 296 293 289 284 280 275
285 287 289 291 292 294 295 296 297 297 298 298 298 298 297 297 297 297 297 297 297 296 296 295 294 292 290 288 286 283 281 279 277 275 274 273 272 271 270 270 269 269 269 268 268 268 267 268 268 269 269 270 271 271 271 271 271 271 271 271 271 271 272 272 272 273 274 275 276 278 280 281 282 283 284 286 288 289 290 291 291 288 284 279 274 269